Wind_Speed
5 5 5 6 7 9 8 1 1 2 2 3 5 2 8 9 7 10 5 3 4 4 4 7 11 10 10 12 13 12 8 3 1 3 3 8 25 31 30 31 29 29 28 24 22 20 20 18 17 18 17 18 19 20 20 19 18 15 14 13 13 14 15 16 17 20 20 19 19 18 18 18 16 14 15 16 17 17 16 16 16 16 16 16 16 16 15 15 14 13 13 12 13 14 15 16 16
5 6 6 9 8 4 3 1 1 3 1 4 5 4 11 9 4 5 1 7 4 2 5 9 14 17 17 15 14 14 11 8 8 7 9 22 28 26 29 28 27 28 27 24 23 21 21 20 19 18 18 19 19 21 21 19 17 15 14 13 13 14 16 16 18 20 20 18 18 17 17 16 15 14 15 16 17 16 16 16 16 16 16 16 15 15 14 13 12 11 11 11 13 13 13 13 14
9 9 7 8 7 2 2 1 1 3 2 5 5 6 10 8 3 2 5 7 6 5 6 11 13 12 14 13 11 11 8 7 12 10 10 22 20 20 28 23 23 26 25 24 22 22 22 21 20 19 18 19 20 21 21 19 17 15 13 12 13 14 16 17 18 20 20 17 16 15 16 16 15 14 15 16 16 16 15 15 16 15 15 15 14 13 12 12 11 10 10 11 11 11 11 11 11
10 9 7 6 2 2 1 0 3 3 4 5 5 9 9 6 3 5 4 4 6 4 5 10 10 7 12 15 10 10 8 5 11 10 7 17 21 25 27 23 23 25 24 23 22 23 22 21 20 19 19 20 21 21 20 18 16 14 13 12 12 14 16 17 18 20 20 17 16 15 15 16 15 15 15 15 16 15 15 15 15 14 14 13 12 12 11 10 10 10 9 9 9 9 9 9 11
10 8 8 5 1 1 1 1 3 4 5 4 4 9 8 3 2 5 2 2 5 4 5 9 7 8 14 11 6 6 7 6 10 13 13 21 30 29 27 26 26 26 23 20 21 22 22 21 20 19 19 20 21 21 20 17 15 13 12 12 12 14 16 18 18 20 19 17 17 17 16 16 15 15 14 14 14 14 14 14 14 13 12 11 10 10 10 10 9 9 8 7 7 8 8 9 14
8 7 8 5 3 2 0 3 3 5 6 6 6 9 7 1 3 4 2 3 6 4 6 10 10 12 11 8 7 5 10 11 10 15 20 25 29 27 26 27 27 25 22 19 18 20 21 20 19 20 20 20 21 20 19 16 15 13 12 11 12 14 16 18 19 20 19 19 19 18 17 16 15 15 14 13 13 14 13 13 12 11 10 9 9 9 9 10 9 8 7 7 7 8 9 13 18
5 5 4 3 2 2 1 4 4 5 7 9 10 10 8 2 1 2 2 5 5 5 10 11 13 14 8 6 7 8 15 17 13 18 26 28 27 26 25 26 26 24 21 19 16 18 20 19 20 20 20 20 21 20 18 16 14 13 12 12 13 14 16 18 20 20 20 20 20 19 18 16 15 15 13 12 13 13 13 11 11 9 8 8 8 9 9 9 9 8 7 7 9 10 12 16 19
7 4 1 1 1 2 2 4 5 6 8 11 12 11 7 0 2 3 2 2 1 2 11 11 15 16 8 9 7 10 22 23 22 27 30 28 26 25 24 25 27 24 22 20 17 17 19 19 20 20 20 20 20 19 17 16 14 13 11 12 13 14 15 18 21 21 21 20 19 19 18 16 15 14 13 12 12 12 12 10 9 8 7 8 8 8 9 9 8 7 7 9 12 14 17 19 19
7 4 1 1 2 3 3 4 6 8 11 12 14 15 10 4 4 3 4 4 2 5 8 11 17 15 9 15 11 7 18 25 29 30 30 28 25 25 24 25 27 25 22 20 18 19 20 19 19 18 18 18 18 17 15 13 12 12 11 12 14 14 15 17 20 21 20 19 19 18 17 17 16 14 12 11 12 11 10 9 7 6 7 7 7 8 8 8 8 7 8 11 14 17 20 20 18
3 5 2 2 2 4 4 5 6 9 12 13 15 15 8 5 5 5 2 5 3 3 9 15 18 16 13 14 8 6 15 25 29 27 28 27 24 24 24 26 26 25 22 19 19 21 21 18 18 17 17 16 15 14 12 12 11 10 11 13 13 13 14 15 17 18 18 18 18 17 17 17 16 14 12 10 10 9 8 7 6 6 6 6 6 7 7 7 7 8 9 12 14 18 20 20 18
2 4 2 2 3 4 5 5 7 8 10 12 13 9 5 6 5 4 5 3 5 4 14 17 14 16 15 10 6 10 20 25 27 25 25 24 22 23 24 25 24 22 21 20 21 23 21 18 17 16 16 14 13 12 11 11 11 11 12 13 13 12 12 13 14 14 15 16 16 16 16 16 15 14 12 10 10 9 7 6 7 7 6 6 6 6 6 7 8 8 9 11 14 19 20 19 17
3 3 2 2 3 4 6 6 8 9 10 11 10 6 6 8 6 2 4 5 4 6 11 13 11 13 13 8 5 12 20 21 24 26 23 22 22 23 23 23 22 21 20 21 23 23 21 19 17 16 16 14 13 13 12 11 11 11 13 13 14 13 12 12 12 13 13 15 14 14 14 14 13 13 12 10 9 8 7 7 9 8 7 6 6 6 6 7 8 7 8 11 14 19 20 18 16
4 4 2 3 4 5 6 7 8 8 8 8 5 3 5 8 7 2 2 5 5 6 9 16 14 12 11 6 6 10 14 17 25 26 24 23 23 24 24 23 22 21 20 20 22 22 21 19 17 16 15 15 14 13 12 12 11 12 13 15 15 14 13 12 13 12 12 13 12 12 12 11 11 11 11 10 9 7 7 9 10 9 8 7 6 6 6 6 7 7 7 10 14 18 20 18 15
5 3 3 3 4 4 6 7 7 7 7 6 1 5 5 6 6 3 3 6 4 5 12 18 16 15 11 7 7 5 10 20 27 25 24 24 25 26 26 24 24 21 20 20 21 20 19 17 17 16 15 16 15 14 13 12 11 13 14 16 15 14 14 13 13 12 11 11 10 10 9 8 8 8 8 8 8 7 7 9 10 9 8 7 7 6 5 6 6 7 7 9 12 17 19 17 15
6 2 3 3 4 5 5 6 7 7 6 3 1 4 6 4 6 4 5 5 1 9 14 12 13 13 11 10 8 7 14 25 27 24 24 25 25 26 27 27 24 21 19 19 20 19 17 16 17 17 17 16 15 14 13 12 12 14 16 16 15 14 14 14 13 11 10 9 7 7 6 5 5 5 6 6 6 6 7 8 8 8 7 6 6 6 6 5 6 7 7 8 11 15 17 16 15
5 2 2 3 4 5 5 7 6 7 6 4 2 3 6 2 4 3 3 5 6 9 10 5 6 9 12 11 13 17 23 28 27 25 25 25 25 25 28 27 24 22 18 18 19 18 17 17 18 17 17 15 15 14 13 13 13 14 15 15 15 15 14 14 12 10 9 7 6 5 4 4 3 2 3 5 5 6 7 7 7 8 7 6 6 6 5 5 6 6 7 8 10 13 16 16 16
4 3 3 4 4 5 6 5 4 4 4 1 2 2 5 1 2 1 2 14 14 12 13 8 9 12 14 16 23 27 28 30 28 27 26 24 24 23 24 24 23 21 19 19 19 17 17 17 17 17 16 15 15 14 13 13 12 12 14 14 14 14 14 14 12 10 8 6 6 5 4 3 2 1 2 4 6 6 6 6 7 7 8 6 5 5 5 5 5 6 8 9 11 15 17 17 15
4 3 4 5 4 7 8 5 6 3 2 5 5 1 3 3 5 2 3 15 17 14 14 14 16 16 19 25 30 29 30 32 28 27 23 20 21 20 19 20 21 20 20 21 19 18 18 16 16 17 15 14 14 13 13 13 12 12 12 13 13 13 13 13 12 9 7 5 5 5 5 3 1 1 2 3 6 8 8 8 7 8 8 7 6 5 5 5 6 6 8 10 14 18 18 16 15
4 3 4 5 6 8 8 7 7 3 4 6 5 3 3 3 7 4 4 13 18 14 12 16 19 17 19 24 26 26 29 29 26 25 21 18 18 18 18 18 20 19 18 20 20 19 18 15 16 16 13 13 13 13 13 12 12 12 10 11 11 11 11 11 11 8 6 5 4 3 5 5 3 1 2 1 2 7 10 10 8 8 9 8 7 5 4 5 5 6 8 11 16 17 16 16 14
4 4 4 6 8 10 12 11 7 1 4 6 6 6 5 3 6 5 6 11 18 15 12 15 17 16 17 17 19 23 24 23 24 23 19 18 18 19 20 19 21 19 17 20 21 20 17 15 16 16 13 14 14 12 13 13 12 11 9 10 9 9 9 9 8 7 5 5 6 7 8 9 7 5 4 2 2 5 9 12 11 10 10 10 9 7 5 5 6 6 8 11 15 16 15 14 10
4 5 6 7 8 10 13 11 7 0 5 5 6 7 5 1 1 2 6 7 11 12 14 18 19 18 18 16 15 18 18 18 21 21 18 19 18 18 19 20 20 17 17 20 21 19 17 16 17 17 15 15 13 12 12 13 13 10 10 10 8 7 8 8 8 8 8 8 9 10 10 10 9 7 7 7 6 6 6 10 13 12 12 12 11 9 7 6 7 8 9 12 14 14 13 10 6
4 6 9 10 9 9 10 12 9 1 5 2 4 6 6 5 3 3 5 5 4 8 14 19 19 17 18 17 15 14 12 13 15 17 17 18 16 16 18 19 18 16 16 20 20 17 16 16 18 18 16 15 14 13 12 14 14 11 11 11 9 9 9 10 11 12 12 12 11 12 11 11 11 10 9 10 10 9 7 7 11 14 14 14 13 10 9 8 8 9 11 12 11 12 11 9 6
5 5 7 11 11 9 11 12 8 4 4 1 2 4 6 7 4 6 13 9 8 14 17 18 17 16 18 16 14 12 10 11 10 13 17 18 16 16 20 19 18 18 18 20 18 15 16 17 18 19 18 17 15 14 13 14 16 14 14 13 12 11 11 12 13 14 14 14 14 14 13 11 11 11 12 12 12 10 9 7 8 13 17 16 14 12 11 10 9 10 13 12 11 11 10 9 8
7 5 7 10 9 9 12 10 4 7 5 3 3 5 5 7 4 9 15 12 16 19 16 17 16 17 18 14 13 11 11 12 10 13 18 20 21 21 21 19 19 20 20 19 16 15 17 17 18 20 19 18 17 16 15 15 17 16 15 16 13 11 12 13 14 15 14 14 13 14 14 12 11 11 13 14 13 12 11 8 7 10 16 17 15 14 13 12 10 11 13 14 13 12 9 9 9
7 6 8 9 8 9 10 8 1 6 4 6 7 7 5 8 3 9 14 14 17 17 15 16 15 16 15 12 12 11 11 14 14 17 20 21 25 23 20 20 19 20 21 19 16 17 18 17 18 20 20 18 17 16 15 15 16 14 13 14 12 11 13 13 13 14 14 13 12 14 15 14 13 12 15 16 15 14 13 12 10 8 12 16 16 16 15 14 12 11 12 14 14 13 11 9 9
7 8 8 9 9 10 9 7 3 6 2 3 6 5 7 9 3 7 13 17 17 16 15 14 14 15 13 10 11 12 13 15 16 18 20 22 24 22 20 20 19 19 20 18 17 18 18 18 18 19 20 19 16 16 15 14 14 13 11 9 9 12 13 12 12 12 13 14 14 15 16 15 14 13 15 17 17 18 16 15 15 12 11 13 17 18 18 17 14 14 14 15 16 16 14 13 11
8 10 10 10 10 10 8 8 5 6 5 5 7 4 7 9 1 4 11 17 17 17 16 14 14 13 11 11 11 12 13 14 18 19 19 20 20 20 20 20 20 19 18 18 17 16 16 17 19 19 19 19 17 15 14 12 11 12 10 8 8 11 12 12 11 10 11 13 14 15 16 15 15 14 14 16 18 20 18 16 16 15 14 16 19 19 19 19 17 15 16 18 19 18 16 14 13
7 9 9 10 11 10 8 7 4 5 3 5 6 5 7 7 3 6 12 17 19 19 17 15 13 12 12 13 11 9 10 14 20 19 15 16 17 19 20 21 22 20 17 17 15 15 15 18 20 20 18 18 17 15 12 11 10 10 10 9 9 10 12 11 11 10 11 12 11 13 15 15 15 15 14 14 17 19 18 17 16 15 16 19 21 20 18 19 18 16 18 20 21 20 17 15 14
9 8 6 9 11 10 9 7 4 5 3 5 5 5 7 6 7 9 14 17 19 20 18 16 14 13 13 11 10 8 8 13 16 16 16 17 18 20 20 21 21 20 17 15 15 17 16 17 19 18 17 16 15 14 11 9 10 9 8 9 10 10 10 10 10 11 11 10 9 10 14 14 15 15 14 14 16 17 17 17 17 18 20 21 22 21 20 20 20 18 20 22 22 20 18 16 15
7 8 5 5 5 6 8 6 5 6 4 7 6 4 6 7 10 9 13 17 19 19 17 15 13 12 11 9 9 7 8 10 13 15 18 19 20 20 20 20 20 20 18 16 17 18 16 16 18 16 15 14 13 12 10 9 9 7 6 7 9 10 9 8 9 9 9 9 8 9 13 14 14 15 15 15 15 15 15 16 19 22 23 23 22 21 21 21 22 21 20 22 23 20 18 16 15
5 6 4 4 2 4 6 7 6 6 6 8 7 5 5 7 11 8 11 16 17 16 15 15 12 11 10 9 8 7 7 10 15 18 20 21 21 21 21 20 20 21 20 18 17 17 15 15 16 16 14 14 13 11 10 9 8 7 7 8 9 9 8 7 7 7 8 9 8 8 10 12 13 16 15 15 15 15 15 16 18 20 21 22 22 21 21 21 22 21 19 22 24 20 17 16 15
3 4 4 3 4 4 5 10 9 6 7 9 9 5 4 8 11 9 10 13 16 16 16 14 11 11 10 9 8 7 7 12 17 18 17 17 17 18 20 20 20 20 19 19 18 16 14 12 13 15 15 14 13 12 11 10 8 8 8 8 8 8 7 6 6 7 7 8 8 8 9 11 13 16 16 16 16 15 14 15 16 16 17 20 22 22 22 21 20 21 19 22 24 22 18 16 16
4 5 4 3 5 4 4 8 11 10 7 9 11 6 3 8 9 10 11 13 19 17 16 15 13 12 10 9 8 7 8 10 14 17 15 13 15 15 16 17 17 17 18 20 20 16 13 11 10 13 13 13 12 11 10 9 8 7 7 6 6 6 6 6 6 7 8 9 10 11 11 12 14 15 17 17 18 16 15 15 15 15 16 18 20 21 21 21 21 20 20 18 20 20 19 18 16
3 4 5 4 5 5 5 6 10 13 9 7 10 8 6 7 6 12 12 15 21 17 16 16 13 11 10 9 8 8 9 8 10 11 8 10 16 17 15 16 15 15 17 19 20 18 15 13 11 11 11 11 11 10 9 9 8 7 5 5 5 6 7 6 6 7 9 11 13 13 13 13 13 15 17 19 19 18 16 16 15 15 16 16 18 20 20 21 22 20 20 17 15 15 16 18 17
5 4 5 4 4 6 8 7 9 14 12 8 9 11 11 8 4 11 12 17 21 16 16 15 13 12 10 9 9 8 9 9 8 11 8 8 15 17 16 18 16 15 16 17 18 18 16 15 13 11 11 11 10 10 9 9 8 7 6 5 5 7 8 7 6 9 11 13 14 14 14 13 13 15 16 19 20 20 18 17 16 15 16 16 16 18 19 20 21 19 19 18 17 17 16 15 16
8 6 6 6 5 6 10 8 11 15 12 9 9 11 10 6 5 9 8 14 19 16 15 13 12 12 10 9 9 8 10 9 8 11 11 11 15 16 17 19 18 16 16 15 16 17 16 15 14 13 12 12 11 10 9 9 7 7 6 5 5 7 9 9 9 11 13 14 14 14 14 14 14 15 16 17 20 21 20 18 17 16 17 16 16 17 19 20 20 19 20 20 18 20 20 15 13
11 7 7 10 8 8 12 9 14 16 10 10 11 9 8 6 6 8 6 12 18 17 14 12 12 11 11 11 10 9 10 9 11 13 14 15 16 16 16 17 17 17 16 13 13 14 14 13 12 12 12 11 10 9 8 8 7 7 6 6 6 7 8 9 10 12 13 14 15 15 16 16 16 17 17 16 18 20 20 18 18 17 18 18 16 16 18 19 20 19 20 20 18 19 21 18 13
13 8 6 9 9 10 14 9 16 17 9 9 11 8 9 7 5 8 7 11 17 17 15 14 13 12 11 12 11 11 10 10 12 11 11 15 17 18 18 17 16 15 15 13 13 13 12 11 10 11 11 11 10 8 7 7 6 5 5 5 5 6 7 7 8 10 11 13 14 15 16 16 17 18 18 18 17 19 19 19 19 19 19 19 17 17 18 19 19 19 19 18 17 19 21 20 16
11 8 5 6 7 9 13 9 18 16 7 8 12 8 8 8 7 9 7 9 11 12 13 14 14 14 13 12 11 12 11 10 10 8 10 16 19 20 20 18 17 17 16 15 14 13 12 10 9 9 9 9 8 9 8 7 6 5 4 5 5 6 6 7 8 10 12 13 14 15 16 17 18 19 18 18 18 19 19 19 19 19 19 19 18 18 20 20 20 19 19 18 16 18 20 19 16
9 7 5 6 7 8 7 7 18 16 7 9 12 7 5 6 6 7 9 13 11 10 12 12 13 14 14 12 11 12 13 11 10 9 10 16 20 20 18 17 17 17 16 15 14 14 12 10 8 7 5 4 4 5 4 4 3 3 4 4 5 6 6 7 9 11 12 14 15 17 18 18 18 19 19 20 20 20 20 20 19 19 19 19 19 18 19 21 21 19 19 19 17 18 19 18 16
9 9 8 7 10 12 7 9 17 14 8 8 9 4 1 5 7 7 11 16 14 13 16 14 12 12 13 13 11 11 12 11 11 10 9 13 16 17 17 17 17 16 15 14 13 12 11 9 8 6 5 4 4 4 3 3 2 1 2 2 3 6 8 9 11 13 14 14 16 17 18 18 17 16 18 19 21 21 21 21 21 20 19 19 20 19 18 20 21 21 20 19 20 20 19 18 16
9 10 12 12 14 14 7 11 15 8 6 6 9 6 2 1 8 7 9 15 13 12 15 14 11 11 11 12 10 10 10 9 10 10 9 12 16 17 17 17 17 15 14 13 13 11 9 8 7 6 6 6 6 6 5 6 5 5 5 6 6 8 11 13 14 14 14 14 14 15 15 17 16 15 15 16 18 21 22 21 21 20 20 20 21 20 19 19 20 21 20 20 21 21 20 18 16
7 10 13 14 16 16 11 9 11 6 6 6 8 8 1 2 4 6 10 16 15 13 14 12 10 9 9 9 8 9 10 9 10 10 9 12 15 16 15 16 17 16 15 14 14 13 11 10 8 8 8 8 8 6 5 6 6 6 6 6 7 9 11 13 12 11 11 11 11 11 12 14 15 15 15 15 15 18 21 21 20 20 21 21 22 22 22 21 21 21 21 21 21 21 22 21 19
8 10 12 12 15 17 15 9 8 6 5 4 7 8 4 3 4 6 12 16 15 13 12 11 10 9 9 9 8 9 9 8 9 9 9 11 14 15 14 15 17 17 16 16 16 15 14 14 13 12 11 11 10 9 7 8 9 8 7 6 6 7 9 10 10 9 10 10 9 10 11 13 13 14 15 15 15 16 19 20 20 20 21 22 22 23 24 23 22 21 22 22 21 22 24 24 23
9 10 11 12 13 15 13 7 6 8 5 3 6 8 6 4 4 6 12 14 15 14 12 12 12 11 10 10 10 10 9 8 9 9 9 11 13 15 15 16 18 18 17 18 16 15 14 15 15 13 13 12 11 11 10 10 11 11 11 11 11 11 10 11 11 11 11 10 10 11 11 12 12 12 13 13 13 15 17 18 19 20 20 21 22 22 23 23 22 22 23 24 23 24 25 26 26
8 11 12 11 12 10 6 4 4 8 7 5 9 11 6 3 4 6 9 11 14 13 11 12 13 12 11 10 10 10 9 8 8 9 11 12 13 15 17 18 19 17 16 16 15 14 14 14 15 14 14 13 12 12 12 12 12 12 13 14 14 14 15 15 14 14 13 13 12 12 11 11 11 11 10 10 11 12 14 16 17 18 18 20 22 23 22 21 22 22 23 25 26 26 26 26 26
8 11 11 10 10 5 1 2 2 5 5 6 12 14 9 3 5 7 6 10 16 14 10 11 11 12 11 10 10 10 8 7 7 9 11 13 15 17 17 18 18 17 15 15 15 14 14 14 15 14 14 13 13 13 13 13 13 13 14 15 15 15 16 16 17 17 17 17 16 14 12 10 9 9 10 9 10 10 12 14 15 16 17 18 21 22 22 20 21 22 23 24 26 27 27 27 27
8 9 7 7 6 1 2 1 2 4 4 6 11 13 10 6 6 7 8 14 19 17 13 15 14 13 11 9 9 9 7 7 7 7 8 10 13 15 15 16 16 15 14 14 13 12 13 13 12 12 13 14 14 13 13 14 13 13 13 14 15 15 15 16 17 18 18 18 18 16 13 12 10 10 10 10 11 11 11 13 14 14 15 16 17 19 21 21 21 21 22 22 24 26 26 26 27
9 7 6 5 3 2 2 2 3 4 4 6 9 9 7 4 2 2 11 16 17 16 16 16 16 16 13 9 8 7 6 7 6 6 6 7 9 12 13 14 14 14 13 13 13 11 11 11 12 13 16 16 16 15 15 15 15 14 14 14 15 15 16 17 17 18 18 18 18 17 15 15 15 13 12 12 12 11 11 12 13 13 13 14 15 16 19 21 22 21 21 22 24 25 25 25 26
11 9 6 5 3 4 5 3 3 4 3 6 9 6 3 3 3 4 8 13 13 15 16 15 16 16 14 10 8 7 6 6 6 6 6 6 9 12 13 13 13 13 13 12 12 9 8 11 15 17 17 16 15 15 15 15 15 15 15 15 15 15 17 18 18 19 19 19 19 18 17 15 15 16 15 13 12 12 11 12 12 12 11 13 15 16 18 20 22 22 23 23 24 25 25 26 27
10 9 6 5 3 4 4 3 4 4 2 4 7 3 0 2 1 3 9 13 13 16 15 15 15 14 12 10 9 8 7 6 5 6 6 7 10 12 13 13 12 11 10 9 8 7 7 11 14 15 15 14 13 14 15 16 15 15 15 15 16 16 18 19 19 20 20 20 20 19 18 16 15 15 14 13 12 12 13 13 12 12 12 12 14 15 17 18 20 23 24 24 23 23 25 26 27
7 6 5 5 5 5 4 4 6 6 4 3 3 2 2 4 4 6 12 13 13 16 16 16 15 12 11 10 8 8 7 6 6 7 6 7 10 12 12 12 10 7 6 7 8 8 10 12 14 14 15 15 14 14 15 16 16 15 14 15 16 17 18 19 20 21 20 20 20 20 19 17 15 15 14 13 14 13 13 13 12 12 13 14 15 15 17 19 20 22 24 24 23 24 24 24 25
5 5 5 6 5 4 4 2 2 6 6 1 1 3 4 4 4 6 11 13 14 15 14 15 14 13 12 10 8 8 7 7 7 7 6 7 10 11 11 10 9 7 7 8 9 9 10 13 15 15 14 14 14 13 14 16 17 16 16 17 17 17 18 19 19 21 21 20 21 21 20 19 18 17 16 14 15 15 14 14 14 13 13 15 17 17 18 21 22 23 24 25 24 24 23 23 24
5 5 6 4 4 4 4 3 0 4 5 1 0 5 6 5 2 4 10 12 12 12 13 14 13 12 11 9 8 8 8 8 8 8 7 8 9 11 11 10 9 8 10 10 10 12 14 16 16 15 13 14 12 11 13 16 18 18 18 19 19 18 18 19 18 20 20 21 21 21 21 22 21 20 19 17 16 16 16 15 15 14 13 15 16 17 18 19 20 22 24 25 24 22 21 21 23
6 6 6 5 4 5 3 4 3 4 4 1 2 6 6 4 4 8 12 13 13 13 13 13 12 11 10 10 9 8 8 8 7 7 6 7 9 9 9 9 7 8 10 11 13 16 17 17 17 16 16 18 14 11 13 17 19 20 20 19 20 19 19 20 20 20 20 21 21 21 22 22 22 21 21 20 19 18 18 17 16 15 15 15 17 17 17 18 19 20 22 22 21 21 20 21 21
5 5 5 5 5 4 4 4 4 5 4 3 5 6 4 2 5 11 13 14 16 15 13 12 12 11 10 9 8 7 7 7 7 6 5 6 9 8 8 8 8 9 11 13 17 20 18 17 19 19 19 22 20 15 16 19 21 22 21 21 22 22 21 22 22 21 21 22 22 22 22 23 23 22 22 21 21 20 20 20 18 18 17 17 17 15 16 19 20 19 19 20 19 19 20 21 21
4 4 6 6 4 4 4 3 3 5 5 4 5 3 3 1 4 10 12 13 15 15 12 11 11 11 10 9 8 7 7 7 6 5 5 6 8 9 9 9 9 12 15 17 19 19 18 18 21 20 19 22 23 19 18 21 23 24 24 24 25 25 24 25 24 24 23 22 23 23 23 23 23 23 23 23 22 21 21 21 20 20 20 19 17 15 15 18 21 21 19 17 18 18 19 20 21
5 4 5 6 5 5 4 2 2 3 4 5 6 4 2 2 1 7 12 12 12 14 13 11 11 11 10 9 9 8 7 6 5 5 4 4 7 10 12 13 13 15 18 18 18 18 19 20 21 20 18 20 23 23 21 22 25 26 26 26 27 27 27 27 26 26 24 23 24 24 23 23 23 23 23 23 23 22 23 23 21 21 22 21 18 16 16 17 18 20 19 17 17 17 18 19 21
Wind_Direction
276 290 317 329 324 333 317 262 91 290 161 235 250 252 262 245 243 271 273 74 50 14 32 72 69 75 90 100 103 77 48 40 53 112 118 114 109 115 125 127 134 138 136 136 136 139 145 150 152 152 156 157 157 156 156 157 154 148 139 128 118 120 121 118 114 107 104 107 107 106 105 101 99 100 102 103 104 103 104 104 103 102 102 101 99 97 95 94 94 95 99 101 102 102 107 112 113
250 272 301 309 302 317 298 183 116 279 223 251 250 228 252 266 285 285 99 93 100 121 63 70 82 94 105 111 104 78 53 44 71 83 102 111 108 113 122 127 135 136 134 135 136 141 145 151 154 155 158 159 159 158 159 158 154 148 140 129 120 124 126 122 118 112 107 107 108 107 107 104 102 103 104 105 105 104 106 106 104 102 101 100 98 97 95 95 94 95 100 102 99 97 102 110 117
251 267 289 299 278 230 295 320 177 239 244 243 259 246 253 275 270 89 88 100 117 123 88 75 76 94 106 93 75 83 87 62 84 90 110 116 111 117 122 124 129 133 133 133 139 143 147 153 158 158 159 159 160 161 161 158 152 147 140 130 123 128 130 126 123 118 113 111 110 109 111 110 106 104 105 106 106 106 107 107 106 103 100 98 97 97 95 93 91 90 92 94 94 96 99 102 113
261 264 277 298 287 198 307 284 191 210 235 238 264 258 266 277 206 109 83 103 104 96 90 84 69 68 84 88 91 93 103 99 103 104 103 112 119 126 124 121 125 130 132 136 143 145 150 156 160 160 158 159 160 162 160 157 151 147 141 133 127 133 136 132 130 125 121 119 118 115 115 115 111 108 106 107 108 109 111 111 108 104 102 103 104 102 96 93 91 90 86 86 89 95 96 93 105
271 263 262 272 281 234 195 230 210 206 228 229 254 260 267 274 159 104 95 91 94 94 99 102 94 79 74 84 106 106 120 119 109 103 95 108 122 126 124 124 125 129 135 141 145 147 152 156 160 159 157 158 160 161 159 156 152 150 146 140 135 139 143 142 139 135 130 128 128 126 123 121 117 113 111 111 112 114 116 113 108 106 107 108 111 107 98 95 93 93 91 90 92 93 92 97 110
276 279 268 242 247 297 220 251 237 234 237 226 244 259 264 272 112 112 110 72 64 53 86 102 109 96 79 68 56 95 140 126 108 109 109 117 122 121 122 126 128 135 142 143 144 149 152 157 158 156 156 157 158 159 158 158 157 158 155 149 145 146 149 149 147 143 138 135 136 134 131 127 123 120 119 118 117 117 117 113 109 106 105 107 109 104 94 94 96 98 97 93 92 92 99 111 119
271 296 284 213 257 288 201 247 247 257 250 237 245 260 274 292 88 60 68 82 32 26 91 106 110 96 79 82 48 53 104 117 115 117 121 123 122 119 126 132 135 140 144 140 141 148 152 155 155 154 155 155 158 161 164 166 166 166 164 158 153 151 152 153 152 148 143 141 141 139 135 131 129 129 129 125 121 120 118 114 107 99 102 109 109 103 98 98 102 106 104 99 95 102 116 122 125
253 269 289 157 252 242 201 247 249 251 255 255 258 268 274 232 54 12 32 99 23 92 112 115 101 90 65 82 79 60 87 107 113 117 123 123 124 128 138 139 136 137 142 141 140 149 153 153 153 155 155 157 162 166 170 170 171 170 167 161 153 150 149 154 155 152 148 146 146 143 141 138 138 138 137 131 126 123 120 118 106 96 102 109 108 105 102 98 98 100 99 97 101 116 127 128 130
245 230 266 224 215 247 234 242 243 241 248 254 259 263 254 174 98 65 10 348 167 154 133 119 98 97 89 82 92 85 92 110 114 117 123 125 133 142 145 138 134 136 141 143 143 150 151 150 150 152 155 159 163 168 171 167 170 168 162 154 145 143 140 148 156 156 152 151 150 148 147 146 145 143 142 137 132 129 127 127 111 102 109 110 112 111 105 95 91 88 90 94 106 126 133 133 134
233 208 227 245 214 254 251 243 243 243 245 244 246 249 238 166 129 119 73 320 280 134 112 104 98 107 107 91 97 103 108 119 117 115 121 130 141 146 139 133 139 142 142 141 143 147 144 145 147 149 154 157 162 166 168 164 165 159 151 145 139 138 134 140 152 159 159 155 154 152 152 151 151 148 146 146 142 140 142 143 129 120 121 119 120 119 112 94 86 81 88 97 113 133 137 136 136
237 223 188 254 251 248 247 251 252 253 252 254 249 223 169 130 119 123 137 243 286 119 109 95 98 106 99 96 101 106 114 121 119 117 124 133 139 139 133 131 141 143 139 138 141 143 141 145 149 151 156 157 161 164 165 161 157 149 146 142 136 137 136 138 144 154 163 162 158 157 157 154 154 155 155 156 152 152 159 157 143 140 136 132 130 128 118 96 84 80 88 102 121 138 140 138 136
230 252 159 216 232 234 248 255 261 267 263 258 253 205 147 113 99 101 154 218 241 175 132 109 120 109 96 106 110 112 116 119 120 123 130 130 130 130 126 128 135 134 132 137 140 141 141 148 153 157 162 162 163 163 163 159 153 148 149 145 140 144 146 144 141 142 155 162 163 161 159 159 159 160 163 165 163 166 171 156 145 149 147 139 136 132 123 103 89 83 91 107 128 142 141 139 134
214 246 175 220 225 228 251 258 266 275 275 258 236 163 132 102 104 142 232 245 229 202 139 121 129 108 102 120 111 119 122 123 122 127 135 128 124 122 120 123 127 126 128 135 138 138 141 147 154 158 162 163 164 163 161 160 156 152 154 152 149 153 153 149 148 142 146 157 165 165 161 162 162 164 168 172 175 178 172 152 147 155 152 142 140 137 128 113 97 91 96 110 132 145 144 139 132
214 234 196 243 251 241 248 258 269 270 280 273 217 109 114 95 112 164 244 266 252 145 119 119 120 101 112 132 116 136 129 123 124 131 135 128 126 122 120 122 123 123 126 133 133 136 142 148 156 158 161 163 162 161 161 163 161 156 157 156 156 158 157 154 154 150 148 155 163 166 168 167 164 169 172 177 186 188 175 156 153 162 157 147 143 141 136 121 104 98 99 111 133 147 146 139 130
216 236 223 256 264 267 262 256 268 269 275 254 235 96 103 104 128 168 235 262 303 115 113 122 118 108 143 156 138 154 132 125 128 133 132 127 125 122 122 123 120 121 128 132 131 137 147 154 159 160 163 164 162 161 163 166 165 163 160 159 161 161 161 161 158 154 151 154 158 160 166 170 171 179 187 195 201 203 189 167 165 171 164 156 150 144 143 130 112 103 104 111 130 148 149 141 131
213 222 240 263 258 267 260 257 273 274 259 185 202 118 107 142 137 158 197 99 57 86 94 112 117 121 154 148 131 139 131 126 130 131 126 120 117 117 122 121 118 124 133 134 138 151 158 160 161 160 162 164 165 165 167 167 165 167 165 161 163 163 165 165 161 157 153 151 147 146 144 150 168 187 209 218 221 225 209 187 179 182 179 170 161 153 149 139 122 108 111 113 124 143 147 140 132
216 213 238 257 257 259 247 251 268 267 258 243 326 126 127 183 134 161 126 89 75 69 66 68 85 108 125 122 127 133 129 127 131 127 119 115 112 113 119 121 119 127 143 147 154 163 161 160 158 156 161 166 168 167 168 167 163 169 168 162 162 165 168 167 164 157 152 144 135 145 146 148 178 199 217 225 235 240 229 214 201 197 197 191 181 170 160 149 134 117 114 116 125 135 137 134 126
217 194 219 243 242 250 248 244 261 291 2 332 340 132 140 166 167 178 94 91 87 74 68 77 81 93 106 115 126 128 127 127 129 124 118 118 116 114 119 126 127 136 155 157 158 160 159 159 154 157 163 164 163 163 166 167 166 171 169 162 163 167 169 171 169 161 151 140 128 144 146 151 197 290 229 221 229 233 235 231 220 214 211 208 205 190 174 161 145 131 120 121 132 134 132 128 120
214 191 204 231 236 254 267 273 283 345 19 328 346 356 348 194 180 159 130 109 100 87 84 91 90 96 103 114 124 126 130 129 129 125 123 126 122 122 126 136 145 152 155 150 151 160 163 155 153 163 161 157 159 158 162 165 165 166 165 160 159 165 170 176 174 162 139 130 134 162 168 176 184 184 213 248 248 227 228 233 232 228 226 224 222 214 193 175 160 146 131 131 139 138 131 124 115
212 199 214 233 238 261 274 277 287 8 46 0 354 331 327 192 170 158 176 128 113 118 118 110 109 115 114 119 124 129 133 130 130 128 126 130 129 132 136 148 160 161 149 147 155 159 158 150 157 168 160 156 159 156 157 158 156 155 154 152 149 157 171 179 172 155 138 150 175 194 195 196 192 170 169 191 270 238 222 230 235 233 233 231 229 227 211 191 184 169 149 145 146 145 139 131 119
206 197 228 247 242 254 264 276 285 49 65 24 344 329 328 282 162 165 177 131 121 139 139 131 131 131 128 129 130 135 136 128 131 133 132 135 136 136 140 153 161 159 151 154 158 151 150 155 161 166 160 155 154 155 155 150 148 147 142 138 136 149 168 172 170 169 178 192 199 203 203 212 211 182 164 178 222 251 238 235 238 231 226 228 232 230 221 210 197 189 171 159 156 157 157 157 151
225 213 226 248 255 262 276 295 296 75 89 35 356 353 324 317 328 18 86 109 140 140 133 130 134 135 133 135 134 137 137 127 130 137 138 134 135 133 136 151 158 153 153 159 159 150 152 158 157 158 156 153 153 158 158 150 149 149 143 140 145 159 171 172 178 185 191 200 209 212 209 219 217 191 179 179 197 235 251 252 246 231 220 220 227 231 229 224 211 202 190 179 177 180 184 192 197
223 241 232 240 248 267 281 294 309 61 93 173 41 0 323 330 338 56 80 93 104 114 121 121 126 127 126 129 130 138 137 123 126 136 137 130 130 135 139 151 155 150 156 164 160 149 154 160 157 156 156 156 158 160 161 160 157 153 150 155 162 169 178 182 190 196 199 202 209 218 217 221 219 198 193 188 187 214 234 252 256 235 222 218 219 228 235 231 226 218 208 204 203 204 211 219 229
199 234 250 249 243 249 260 274 346 54 27 332 355 355 335 315 331 82 96 102 99 106 114 115 118 119 121 127 131 139 128 119 132 132 125 123 128 138 143 145 147 150 159 164 159 153 159 164 159 158 162 165 166 165 167 171 169 159 157 166 167 173 190 193 197 202 206 209 211 220 223 222 219 206 200 196 192 207 224 234 250 241 227 222 216 222 233 233 236 233 225 224 223 224 231 244 253
199 219 247 263 262 250 252 260 67 78 17 328 318 331 303 279 319 94 109 110 107 110 111 112 115 116 122 129 129 125 110 115 128 121 113 114 124 134 138 137 142 152 161 162 158 160 163 164 164 165 170 173 173 172 174 177 176 170 170 177 171 178 201 207 208 209 211 219 221 221 224 221 218 211 202 200 200 210 219 219 222 227 226 227 221 221 227 230 237 239 236 240 241 237 242 264 257
205 213 230 250 265 267 263 254 184 128 120 269 277 296 281 281 344 107 125 120 117 116 112 112 112 116 121 118 114 109 106 113 119 117 112 112 119 126 130 133 141 154 165 167 159 159 163 166 171 175 178 180 177 175 180 182 178 179 182 183 178 185 204 218 223 220 217 223 223 221 223 221 221 214 202 203 207 212 218 215 210 207 215 227 227 226 225 225 232 238 239 245 249 247 255 266 243
213 211 221 235 255 267 267 255 213 151 149 203 220 228 261 274 297 133 139 127 123 117 112 115 115 118 117 104 101 102 105 113 119 120 115 113 117 123 127 131 139 152 167 169 161 159 163 169 176 181 183 180 176 177 183 186 183 187 189 182 190 204 212 220 227 225 221 223 224 223 220 216 217 215 210 209 209 212 218 220 211 203 208 219 226 229 229 227 229 237 242 243 246 248 259 256 231
251 228 224 227 241 260 271 275 238 149 148 197 200 217 248 257 220 162 147 134 127 123 120 123 121 115 110 101 100 100 102 114 120 122 119 120 126 127 130 133 139 151 162 162 160 157 158 169 179 184 184 179 176 179 180 182 185 191 195 194 203 216 217 220 229 228 223 223 224 224 218 213 211 211 214 212 209 213 219 223 216 206 208 214 220 225 231 231 229 240 250 247 245 249 255 242 223
269 255 244 226 228 244 255 266 232 146 150 194 185 238 247 236 214 171 151 143 133 130 129 129 121 110 108 102 102 102 102 108 112 120 128 129 132 132 132 135 141 150 154 152 151 150 153 168 178 180 182 182 180 181 182 184 189 193 196 198 203 209 210 214 219 218 217 218 222 224 217 213 211 210 213 210 209 214 219 222 216 209 213 217 218 220 226 224 223 241 256 251 245 250 253 236 222
262 256 250 235 232 240 239 248 218 151 163 194 179 233 251 230 221 185 152 149 137 134 134 127 120 112 111 107 104 101 99 103 102 114 126 129 132 133 132 136 142 147 149 150 148 151 159 170 174 174 177 183 183 184 188 189 193 195 188 186 193 201 206 203 203 206 209 211 219 221 214 213 214 214 215 213 211 214 217 220 213 211 217 221 221 222 225 220 218 233 254 253 242 242 247 233 223
261 265 246 209 211 247 224 221 210 162 184 203 185 219 251 233 221 192 154 150 134 127 125 117 115 112 113 114 110 104 98 102 102 108 118 126 132 133 133 136 142 145 146 150 152 155 164 171 173 173 175 177 179 187 190 182 179 183 183 184 190 203 211 209 211 213 210 213 218 218 214 216 218 220 223 221 217 215 216 217 216 218 219 222 225 226 226 226 223 224 242 257 246 238 243 232 223
231 248 259 198 186 245 223 205 198 174 200 200 190 224 246 226 215 179 157 143 120 115 117 115 116 112 111 111 110 107 98 98 95 91 96 111 124 128 132 137 141 143 143 148 153 157 162 167 170 173 175 173 176 187 186 174 169 177 182 184 195 212 219 219 227 232 228 227 230 232 228 226 226 229 231 231 229 227 224 223 224 226 223 223 227 227 227 230 226 219 229 255 253 241 242 235 224
219 197 223 209 186 224 249 209 191 188 212 193 190 223 228 224 211 166 161 134 116 118 123 122 119 115 112 108 110 109 97 85 70 54 48 74 99 104 114 128 135 138 140 144 148 152 155 157 163 167 169 166 167 175 176 171 173 180 178 179 204 226 230 231 242 249 250 251 251 249 244 240 238 235 235 237 239 237 235 234 232 231 227 224 226 227 229 229 224 220 221 239 252 244 243 240 233
243 199 203 230 195 194 228 219 187 190 213 195 189 217 231 242 211 163 159 128 119 124 126 124 122 119 117 114 114 104 93 79 69 69 59 74 94 98 103 118 129 135 138 141 143 146 150 153 158 160 158 155 161 169 173 177 177 178 177 181 210 231 239 242 245 249 253 256 257 257 258 254 246 238 236 239 243 241 237 236 235 231 229 228 228 226 228 228 226 224 221 228 242 242 248 249 239
221 204 187 231 234 208 219 213 179 186 208 207 191 214 237 260 212 164 152 127 124 129 129 130 131 125 122 118 111 99 95 92 101 127 134 93 91 98 102 112 126 136 137 139 140 140 145 152 155 157 160 164 171 177 180 184 182 184 189 191 206 221 235 242 243 246 249 253 255 257 260 259 251 242 239 241 245 245 240 237 236 232 233 234 230 225 224 226 225 222 223 231 235 230 238 250 244
226 206 173 205 235 235 232 213 175 180 198 210 200 211 228 242 187 165 143 123 125 130 132 132 133 128 125 121 113 107 103 106 121 126 120 101 93 93 92 100 116 129 132 136 139 140 144 151 158 163 170 177 181 182 185 191 191 194 200 210 216 222 235 241 241 247 251 257 263 265 264 263 259 254 251 249 248 248 244 241 239 234 235 236 230 226 225 226 226 223 223 230 236 232 230 237 252
241 221 180 199 217 237 245 215 174 178 188 210 212 204 203 207 173 161 138 115 121 130 134 134 136 133 127 121 116 114 107 109 115 108 107 110 105 100 98 104 113 118 121 127 132 139 142 147 157 164 170 178 181 181 188 194 195 201 212 227 237 240 248 249 246 251 258 266 273 275 274 273 271 267 265 261 256 253 248 244 242 238 235 234 233 231 230 232 232 228 224 228 236 237 229 230 242
243 238 200 202 206 225 248 216 169 177 181 204 212 190 189 205 166 157 144 118 128 140 143 143 137 124 117 115 112 109 106 108 106 107 119 117 106 101 103 108 111 111 115 118 118 125 131 138 149 159 165 171 173 175 184 190 188 204 230 244 252 257 264 270 268 269 276 281 280 278 278 280 279 276 272 268 265 261 255 248 243 240 237 236 237 236 234 237 238 231 226 227 233 234 229 231 233
244 249 234 229 213 217 246 212 168 176 181 196 204 190 192 199 160 158 141 110 127 139 140 142 130 118 112 110 109 106 106 110 111 125 131 112 99 95 94 96 99 100 104 106 107 112 118 121 124 140 155 162 170 179 186 188 185 202 237 250 258 269 278 283 282 280 282 286 285 279 278 279 279 278 274 269 265 262 258 252 244 241 241 241 240 238 235 236 238 234 228 229 233 231 228 230 229
243 243 235 251 238 219 238 190 169 178 181 180 189 187 187 177 141 135 106 90 92 90 94 104 108 111 111 106 107 108 109 110 110 116 111 102 98 96 94 92 92 93 93 95 99 104 107 109 109 118 129 128 148 167 168 163 172 205 239 249 262 282 295 292 282 275 274 277 276 273 274 276 277 274 272 269 266 261 255 252 248 243 242 243 243 240 238 235 235 234 230 231 230 225 224 223 223
241 236 228 242 247 238 227 170 168 179 190 173 155 124 155 148 117 110 99 91 90 86 85 83 83 93 100 101 101 102 108 110 109 106 103 101 97 95 97 95 91 89 87 85 86 90 93 98 105 104 100 91 78 65 60 65 48 3 319 308 301 294 295 292 282 276 274 270 268 270 273 276 275 273 272 268 264 260 255 251 247 244 244 246 246 243 239 237 236 235 233 233 230 224 221 216 218
244 236 228 233 245 256 244 163 157 167 207 192 140 114 304 183 120 122 106 95 98 96 94 92 88 87 90 95 98 100 103 101 100 99 95 93 88 86 90 90 90 86 83 83 80 81 81 80 82 78 76 72 56 36 21 16 4 355 346 333 318 298 287 282 280 281 283 278 273 274 277 277 274 275 279 273 263 256 254 251 244 243 244 243 245 244 241 238 236 235 234 233 233 230 222 215 215
239 231 224 231 240 258 261 182 158 164 198 192 150 139 235 281 132 131 112 103 102 95 93 97 91 87 88 93 99 101 98 90 87 86 84 88 87 86 84 84 85 78 76 82 78 75 73 68 70 70 67 58 49 42 27 19 12 0 341 322 308 295 289 288 289 292 292 289 285 283 283 282 277 277 282 281 270 257 253 253 247 243 242 241 243 244 242 240 237 236 236 234 234 230 221 215 215
232 231 222 229 234 245 254 216 174 177 175 155 138 133 135 197 203 157 123 108 101 95 93 97 94 92 95 94 90 89 92 91 91 91 87 87 88 88 84 79 79 74 71 73 68 66 67 65 65 67 65 56 48 49 46 42 38 32 18 359 349 331 318 318 320 319 313 305 298 294 292 289 283 282 283 279 271 261 256 256 251 246 243 242 243 242 241 240 239 238 236 235 233 227 222 218 217
226 236 231 233 232 236 249 238 183 173 161 128 134 128 125 192 213 159 134 119 113 113 111 108 105 104 100 95 91 88 89 90 91 93 89 87 90 90 85 77 75 72 68 68 65 63 64 62 58 54 54 49 42 42 42 43 44 44 40 30 24 16 5 355 346 342 338 328 317 307 299 294 289 288 289 285 275 265 261 259 256 252 246 243 243 242 241 240 241 241 238 238 234 228 226 223 220
217 235 244 244 239 235 238 234 183 159 156 167 160 144 129 207 218 164 150 137 128 125 122 118 113 111 109 104 101 97 93 91 90 92 89 88 90 87 83 76 71 68 65 65 63 59 59 58 51 44 42 42 37 36 37 39 40 41 39 34 28 20 13 8 1 358 354 345 337 328 317 307 299 296 296 295 291 281 275 270 264 259 253 248 247 245 243 243 245 247 245 243 239 232 229 226 223
203 226 247 256 247 240 147 201 166 139 169 192 174 158 137 156 209 188 165 142 135 131 125 123 118 115 113 107 105 103 102 100 96 96 96 95 90 84 81 76 72 68 62 60 58 55 54 52 49 44 38 37 37 34 34 35 35 36 35 31 27 21 15 12 7 4 1 356 347 339 335 325 312 315 314 305 303 301 291 281 271 266 263 257 254 253 251 250 250 252 253 250 244 238 232 229 226
207 217 231 254 258 283 42 257 162 156 209 211 181 166 148 152 215 199 150 136 137 138 134 131 127 121 114 106 103 103 101 100 97 94 97 96 89 82 78 75 74 71 66 63 59 54 50 48 49 49 43 41 41 35 30 29 29 29 30 27 24 19 15 12 9 4 2 1 353 343 341 333 320 323 323 314 310 310 307 300 289 280 275 269 262 261 260 259 258 258 257 254 249 245 239 232 228
209 215 198 213 244 193 188 204 184 192 219 203 174 165 160 154 259 216 136 137 139 134 131 131 129 124 119 111 105 101 96 95 94 90 87 84 81 77 74 70 69 70 70 69 63 56 52 51 51 52 52 51 48 41 35 31 27 25 25 25 21 17 15 13 11 6 1 3 358 349 344 335 326 324 317 310 305 305 310 308 300 293 287 284 279 273 267 264 264 262 258 255 252 251 246 237 230
201 214 181 175 186 175 191 176 178 211 212 184 163 154 170 132 347 345 107 120 122 116 117 120 122 121 117 113 110 104 100 98 97 97 90 81 79 77 73 68 64 63 69 71 66 64 64 59 55 53 51 46 46 47 41 34 33 30 25 23 19 15 14 14 13 8 2 2 359 354 349 339 333 332 323 310 296 296 306 302 294 293 288 285 283 278 270 263 264 263 258 254 254 254 249 242 236
205 213 168 173 189 160 180 162 160 196 186 157 149 138 16 111 26 10 87 97 101 106 110 111 112 114 111 110 112 108 105 105 102 99 94 92 95 90 83 77 71 67 75 79 69 64 70 63 57 55 49 41 46 51 43 39 40 36 28 24 21 16 12 13 14 9 3 1 1 360 356 347 340 338 334 325 311 310 316 307 294 288 284 279 274 270 267 264 265 264 257 251 251 253 248 243 238
210 201 165 198 207 145 152 167 154 153 139 122 122 94 49 88 74 67 88 94 100 107 111 113 114 116 118 116 115 114 113 110 100 93 88 90 97 100 99 95 89 78 82 90 72 55 68 72 63 59 55 53 58 59 49 43 40 36 31 27 25 20 14 12 11 6 4 5 6 5 3 358 351 344 341 339 335 332 328 317 306 294 287 286 280 270 265 263 263 261 256 250 247 247 247 246 243
192 194 193 205 203 147 124 160 141 114 123 152 73 104 108 103 67 79 101 103 108 115 116 118 121 123 122 117 118 121 119 112 101 92 87 82 85 94 100 97 89 70 63 81 75 54 67 79 72 67 63 59 63 67 60 50 43 40 37 31 27 25 20 17 12 6 5 6 6 6 5 3 2 357 351 347 345 346 341 332 325 313 298 290 284 277 271 268 266 261 257 253 247 246 249 250 247
170 195 208 191 209 206 126 122 28 95 121 260 0 135 151 158 149 133 126 115 117 124 121 120 121 121 118 116 123 125 118 113 106 99 95 87 84 89 93 92 92 82 71 74 66 60 76 82 71 65 57 45 48 62 61 52 47 44 40 36 32 30 27 22 17 13 10 7 4 3 2 1 3 3 358 354 353 355 353 344 334 324 312 299 291 288 283 278 272 264 259 256 250 247 250 251 248
188 176 179 159 189 228 176 159 175 131 128 87 125 159 181 189 173 159 148 139 136 133 128 127 126 124 121 119 121 119 113 109 103 100 96 87 84 88 101 106 107 101 89 75 60 63 77 77 63 55 45 35 40 60 60 52 49 44 40 38 31 29 32 29 23 19 16 12 8 4 3 1 2 2 359 357 355 354 353 351 343 332 323 314 307 301 293 284 277 268 261 259 256 251 249 248 246
217 164 168 177 179 185 174 183 172 136 134 127 136 173 225 246 176 168 160 150 145 143 138 134 130 127 122 119 119 115 108 102 102 107 106 106 105 105 113 110 99 97 89 71 60 62 69 68 59 51 44 40 45 59 63 57 51 44 41 37 29 29 34 33 29 25 19 15 12 9 6 3 3 1 360 359 356 350 346 345 345 341 332 322 314 308 299 293 291 284 269 261 258 253 245 242 242
217 177 178 199 197 169 171 218 187 135 132 136 139 178 236 245 175 168 157 147 145 143 136 129 127 124 119 119 119 111 105 104 108 111 114 133 139 129 110 92 84 89 83 69 62 60 61 62 59 54 49 43 42 51 60 56 49 45 43 39 35 36 36 33 31 27 22 17 14 11 8 4 2 2 2 4 1 357 351 344 340 340 337 330 320 312 307 300 298 296 286 273 265 256 247 242 237
199 195 187 188 181 159 148 245 231 143 135 145 145 159 190 324 274 153 144 140 142 138 130 126 123 122 121 118 113 108 108 108 104 103 108 135 139 123 101 80 72 76 78 73 64 57 57 60 61 55 46 40 40 47 53 50 46 44 42 41 39 38 35 33 31 27 22 19 16 13 9 6 3 2 4 7 5 5 5 0 351 341 338 337 332 323 319 312 306 302 296 288 275 263 253 244 238
Height
779 780 779 780 779 779 780 780 796 795 795 809 799 795 779 755 756 753 752 747 746 742 730 730 732 736 748 763 771 772 773 776 778 783 798 789 777 780 777 780 782 782 785 788 791 793 795 796 797 799 801 802 803 804 805 806 807 808 809 810 811 812 813 814 815 816 816 817 818 818 819 820 821 821 821 822 822 823 824 825 825 826 826 826 827 827 827 828 828 828 828 828 828 828 828 828 828
779 779 778 780 778 782 783 780 802 802 801 813 797 789 772 752 758 758 754 748 746 739 728 730 735 743 750 756 759 767 776 772 767 771 779 778 780 782 779 781 782 783 786 788 791 793 795 797 798 799 800 802 803 805 805 807 808 809 810 811 812 813 814 815 816 817 818 819 820 820 821 822 823 823 823 823 824 825 825 826 826 827 827 828 828 828 829 829 829 829 829 829 829 829 829 829 829
779 779 778 780 779 782 784 784 803 807 808 813 796 777 762 760 762 754 748 742 737 730 729 733 740 748 752 761 763 772 782 773 766 768 774 777 780 783 782 782 783 785 786 788 791 792 794 796 798 799 800 802 803 805 807 808 809 810 811 812 813 814 815 816 817 818 819 820 821 822 822 823 824 824 825 825 825 826 827 827 828 828 829 829 830 830 830 830 830 831 831 830 830 830 830 830 830
778 779 779 780 783 785 789 793 798 804 810 807 793 771 758 762 756 748 742 736 731 728 732 737 748 749 751 768 768 773 781 774 769 768 773 776 778 782 782 782 784 785 787 789 790 792 794 796 798 799 801 803 805 807 808 809 810 811 812 813 814 815 816 816 817 818 819 820 821 822 823 824 824 825 826 826 827 827 828 829 829 829 830 831 831 831 831 831 831 831 831 831 831 831 831 831 831
778 779 779 781 788 788 789 795 792 798 803 795 788 768 757 756 749 746 737 732 729 729 734 740 755 750 748 762 764 774 779 774 771 768 773 778 779 782 782 783 784 785 788 789 790 793 795 797 799 801 803 804 806 808 809 811 811 812 813 813 814 815 815 816 817 818 819 820 821 822 823 824 825 826 827 828 828 829 829 830 830 831 831 831 831 831 831 832 832 832 832 832 832 832 832 831 831
778 778 778 780 784 781 790 799 795 796 788 780 780 764 754 750 746 744 735 733 728 728 733 741 752 751 758 761 760 769 770 770 773 770 774 779 781 781 782 783 784 786 788 790 792 794 797 800 801 803 805 807 808 810 811 812 812 813 813 813 814 815 815 815 816 817 818 820 821 822 823 824 825 826 827 828 829 830 830 831 831 831 832 832 832 832 832 833 833 833 832 832 833 833 833 832 832
778 781 779 783 783 781 796 803 798 795 778 769 768 758 752 746 741 740 738 738 735 732 735 743 743 752 768 763 765 768 763 767 769 772 774 777 780 781 782 782 784 787 790 792 795 797 800 802 803 805 806 808 809 811 812 812 813 813 813 814 814 815 815 816 817 818 819 820 821 822 823 825 825 826 827 828 829 830 831 832 832 832 833 833 832 833 833 833 833 833 833 832 833 833 834 834 834
779 783 780 787 792 788 797 799 794 789 774 762 756 753 750 742 738 739 741 742 743 739 740 745 739 758 776 764 775 775 765 769 768 773 775 777 780 780 781 781 785 789 792 794 796 798 800 803 805 807 808 809 810 811 812 812 814 814 815 815 816 817 817 818 818 820 820 821 822 823 824 825 826 827 827 829 830 831 832 832 833 834 834 833 833 833 834 834 834 834 833 833 833 833 834 834 835
779 783 782 788 796 794 796 795 790 780 769 760 753 748 744 738 736 738 742 742 742 739 740 745 741 765 780 769 781 777 769 773 771 775 775 778 779 779 782 783 787 790 793 795 797 799 802 806 807 809 810 811 812 812 813 814 815 816 817 817 818 819 819 820 820 822 822 823 823 824 825 826 827 828 829 829 830 831 832 833 834 835 834 835 834 834 835 835 835 835 835 834 834 834 835 835 836
780 781 783 789 794 799 799 794 784 773 763 755 748 743 740 737 735 737 741 743 740 739 741 741 745 764 775 777 783 776 774 774 771 776 777 779 779 781 785 786 789 790 794 796 798 801 803 807 809 811 812 813 814 814 815 816 817 818 819 819 820 821 822 822 823 824 824 825 825 826 827 827 829 829 830 831 831 832 833 834 835 835 835 836 835 835 835 835 836 836 836 835 835 835 836 836 836
784 779 780 791 798 802 800 791 780 769 758 749 743 737 734 732 735 738 740 743 738 741 745 744 757 764 770 780 782 776 775 775 773 776 778 780 782 784 787 788 791 792 795 797 800 802 804 808 809 811 812 814 815 815 817 817 818 819 820 821 822 823 824 824 825 826 826 827 827 827 828 829 830 831 832 832 833 834 834 835 836 836 836 836 836 837 836 836 836 837 837 836 836 837 837 837 837
788 782 782 795 799 797 792 786 778 767 758 750 744 733 728 728 734 740 741 745 739 741 743 745 758 760 774 785 780 777 776 777 775 775 779 781 783 786 788 790 793 795 797 799 801 803 805 808 810 811 812 813 814 816 817 817 819 819 821 822 823 824 824 825 826 827 827 828 829 829 830 831 832 833 834 834 835 835 836 836 837 837 837 837 837 838 838 837 837 838 838 837 837 838 838 838 838
785 782 786 794 789 788 785 781 774 767 761 750 740 729 725 728 736 739 740 743 739 743 742 740 748 753 776 785 778 778 777 778 776 777 780 781 785 788 790 792 795 797 799 801 802 804 806 807 809 810 811 813 814 815 816 817 819 820 821 822 823 824 824 826 826 828 828 830 830 831 832 833 834 835 836 836 837 837 837 838 838 838 838 838 838 839 839 838 838 838 839 839 839 839 839 839 839
777 777 783 790 783 782 781 777 771 769 765 747 735 727 725 729 733 734 738 744 740 742 741 734 738 755 776 783 783 782 778 778 777 779 781 783 787 788 792 794 796 799 800 802 803 805 806 807 808 810 811 813 814 816 817 818 819 820 821 822 823 824 825 826 827 828 830 831 832 833 835 836 837 838 838 839 839 839 839 839 839 840 840 840 840 840 840 840 839 839 840 840 840 840 840 840 840
772 772 778 786 784 782 777 774 769 768 763 744 734 728 727 727 727 733 737 744 743 735 738 736 734 754 773 778 784 780 775 777 776 780 782 785 788 790 794 795 798 800 802 803 803 805 804 806 807 809 812 813 815 816 817 818 819 820 821 822 823 824 825 826 828 829 831 832 834 835 837 838 839 840 840 841 841 841 841 841 841 841 841 841 841 841 841 841 841 840 840 841 841 841 841 841 841
766 770 779 786 786 785 776 768 766 768 758 741 732 728 733 731 725 734 732 735 744 736 739 744 736 746 763 767 772 773 773 776 777 781 783 787 790 793 796 797 800 800 802 802 802 802 802 805 807 810 812 813 815 815 817 818 819 820 821 822 823 825 826 827 829 830 832 833 835 837 838 839 841 842 842 842 842 843 843 843 843 843 843 843 842 842 842 842 842 841 841 842 842 842 842 842 842
763 770 783 788 787 784 772 765 765 763 753 740 733 730 738 739 729 728 725 729 746 745 742 746 740 743 755 760 765 768 773 776 778 781 784 789 791 795 798 798 800 800 801 800 800 802 803 807 809 811 812 813 814 815 817 818 820 821 821 822 824 825 827 829 830 831 834 835 836 837 839 840 841 842 842 843 843 844 845 845 844 844 844 844 844 843 843 843 843 842 842 842 843 843 843 843 843
766 775 784 789 786 776 763 760 757 752 751 744 736 733 737 742 735 726 730 740 747 752 750 748 748 749 754 760 765 769 773 776 778 781 785 789 792 795 798 799 800 799 799 799 803 805 807 809 811 813 813 814 816 817 819 819 821 821 822 824 825 827 828 830 832 833 835 836 837 838 839 839 840 840 841 842 843 844 845 845 845 845 846 845 845 845 844 844 844 844 843 843 844 844 844 844 844
768 774 781 783 776 764 753 753 750 746 749 744 736 733 735 738 734 728 739 752 752 759 762 756 759 760 760 763 767 771 773 777 779 782 785 789 793 795 798 799 798 797 798 802 805 806 808 810 812 814 815 816 817 818 819 819 820 821 823 825 827 829 831 832 834 836 837 838 838 838 838 837 837 837 839 841 842 843 844 845 845 846 846 847 847 846 846 846 845 845 845 844 845 845 845 845 845
765 770 779 775 764 759 751 750 749 742 741 742 740 734 735 734 730 730 739 750 754 761 764 762 768 768 767 767 768 772 775 778 780 782 786 790 793 795 796 797 796 797 801 803 804 806 809 811 813 815 816 817 818 819 819 820 821 822 824 826 829 831 832 834 836 838 839 838 837 836 836 835 835 836 838 840 841 843 844 844 845 846 847 847 847 847 847 847 846 846 846 845 845 846 846 845 845
763 766 774 766 758 759 751 748 746 739 736 740 742 738 740 734 729 732 737 749 757 758 756 756 764 766 766 769 769 773 775 778 781 783 787 790 794 796 796 796 797 799 802 803 804 807 810 812 813 815 816 817 818 819 819 820 821 823 825 828 830 831 833 835 836 837 837 837 835 834 834 834 835 835 837 839 840 842 843 844 844 845 846 846 847 847 847 847 847 847 846 846 846 846 846 846 846
762 762 764 758 756 759 751 745 744 739 736 738 742 745 743 735 732 734 739 752 755 751 749 749 755 760 763 766 769 773 775 779 782 784 787 790 794 796 796 797 798 800 803 803 805 808 810 812 813 814 817 818 818 818 819 820 821 823 826 828 829 830 831 833 834 834 834 835 834 833 833 832 833 835 836 837 838 840 841 843 843 843 844 845 847 847 847 847 847 847 847 847 846 846 846 846 846
763 762 757 753 754 756 750 745 743 738 739 741 744 744 739 739 741 738 744 752 747 743 746 749 753 757 761 765 769 773 776 780 783 785 787 791 795 796 796 797 798 801 803 803 806 808 810 812 813 814 816 817 818 818 819 820 821 823 826 827 828 828 829 830 831 831 832 833 833 833 832 832 832 834 835 835 837 838 839 841 841 842 843 844 846 847 847 847 847 847 847 847 846 846 846 846 846
761 763 756 751 750 751 747 744 744 740 741 742 742 743 741 745 746 743 749 750 744 744 747 750 755 757 762 767 770 773 776 780 784 786 788 791 794 795 796 797 799 800 801 804 806 808 810 812 813 815 816 817 817 818 818 819 821 824 825 826 828 828 828 827 827 829 831 832 832 833 832 832 832 833 834 835 836 837 838 839 841 842 842 843 845 846 847 846 847 847 847 847 847 846 845 845 845
757 760 755 750 748 747 743 742 743 742 743 741 742 748 746 743 744 749 753 750 746 747 749 752 756 759 764 768 771 773 776 781 783 786 789 791 793 795 796 798 799 800 801 803 806 808 810 812 813 814 815 815 816 817 818 819 821 824 825 827 828 829 827 824 825 828 831 831 831 831 830 831 832 833 833 834 836 837 837 838 840 841 841 843 844 845 846 846 846 847 847 847 847 846 845 845 845
753 753 752 749 748 745 742 741 742 743 744 744 748 753 748 739 743 753 752 748 747 747 752 755 758 763 766 769 772 774 777 781 784 786 789 791 793 795 797 799 799 801 801 803 806 808 810 811 812 813 814 815 816 817 818 819 822 823 825 826 828 828 826 825 825 827 829 829 829 829 829 830 831 832 832 833 835 835 836 837 839 839 839 842 844 844 845 845 845 846 847 847 847 846 846 845 845
747 748 748 747 747 743 742 742 741 742 743 746 752 755 749 739 747 761 754 745 746 749 756 759 761 766 768 771 773 774 778 781 784 786 789 791 793 795 797 799 800 800 801 803 805 808 809 811 811 812 813 815 816 817 819 820 821 823 824 826 827 827 827 827 826 826 827 828 828 828 828 829 830 831 832 833 834 834 834 835 836 835 836 840 843 844 844 844 844 845 846 846 846 846 845 845 844
743 746 748 747 746 744 743 744 742 743 745 745 749 753 751 745 749 759 753 744 746 751 758 761 764 768 770 773 775 776 779 781 784 786 788 791 793 794 796 798 799 800 801 803 805 807 809 810 811 812 814 815 816 817 818 820 821 822 823 825 825 826 826 827 826 826 826 827 827 827 827 828 829 830 832 833 833 834 834 833 834 834 836 839 842 842 842 842 843 844 845 845 845 845 844 843 843
743 744 752 752 747 748 745 745 743 744 748 743 746 759 759 754 751 750 749 745 744 750 758 762 765 769 772 775 776 778 780 781 784 787 789 791 793 794 796 798 798 800 801 803 805 807 808 809 811 812 814 815 816 817 818 819 820 821 822 823 824 824 825 825 825 825 825 826 826 825 826 827 828 830 831 832 833 833 832 832 833 834 836 838 839 839 839 840 840 842 843 844 844 843 842 842 842
746 744 751 754 756 757 746 744 743 744 748 739 749 772 769 757 747 743 746 743 743 751 757 762 766 770 774 776 778 780 781 782 785 788 790 791 793 795 797 799 799 800 802 804 805 807 808 809 811 813 814 815 816 817 818 818 819 820 821 821 822 822 823 824 824 824 824 824 824 824 824 825 826 828 829 830 831 831 831 832 832 834 836 837 837 836 837 837 837 838 841 842 842 840 840 840 840
748 749 752 754 764 763 746 743 746 748 747 738 751 774 770 756 745 740 742 740 744 754 759 764 769 771 774 777 779 781 782 783 785 788 791 792 794 796 798 800 800 801 802 804 805 806 808 809 811 813 814 815 816 816 816 817 818 818 820 820 820 821 821 822 822 822 823 823 823 823 823 824 825 826 828 829 829 830 831 831 832 833 834 834 834 834 835 835 835 835 839 842 840 838 838 838 837
749 759 763 758 764 763 748 742 744 749 747 739 753 770 766 754 743 737 738 739 746 756 762 766 770 773 776 778 780 783 784 785 788 791 794 796 797 798 799 801 801 802 802 804 806 807 808 810 812 813 814 815 815 815 816 817 818 818 819 820 819 819 820 820 820 821 821 822 822 822 823 823 824 825 827 828 828 829 830 831 831 832 832 832 832 832 832 833 833 833 837 841 840 838 838 836 835
751 760 769 763 763 765 755 745 740 743 746 743 751 763 763 752 740 736 736 740 748 757 764 767 771 774 776 780 782 784 786 789 793 797 801 802 800 800 802 803 804 803 804 805 807 808 809 810 812 813 814 814 814 815 816 817 818 819 819 819 819 818 819 820 820 820 820 821 821 822 822 823 823 824 825 826 827 828 828 829 830 830 830 830 830 830 830 831 832 832 834 838 839 837 837 835 835
760 758 764 761 759 763 761 752 740 739 746 749 749 755 757 749 740 738 737 742 750 758 765 768 771 774 776 780 783 786 790 794 798 799 803 804 801 801 803 805 807 808 807 808 809 809 810 811 812 813 814 815 815 815 816 818 818 819 819 819 819 818 819 820 820 820 820 821 821 822 822 822 823 823 824 824 824 826 827 827 828 828 828 828 828 829 829 830 831 831 832 834 835 835 835 835 835
765 762 764 762 758 758 758 753 743 739 747 751 752 754 753 747 742 739 736 741 751 759 764 767 770 774 777 780 784 789 792 796 799 798 801 804 802 803 804 804 808 812 811 811 811 811 812 813 814 814 815 815 815 815 816 817 818 819 819 819 819 818 818 819 820 820 821 821 822 821 821 821 821 822 823 823 823 823 824 825 826 827 827 827 828 828 828 829 830 830 831 832 833 832 833 834 835
757 755 758 761 760 757 750 745 739 738 747 752 753 754 752 749 746 741 737 741 752 760 763 767 771 773 777 780 784 790 793 797 799 800 803 805 805 806 805 804 809 813 813 813 813 813 814 814 815 815 816 815 815 816 816 816 817 818 819 819 819 818 818 819 820 820 821 821 821 820 820 820 820 821 821 821 821 821 822 823 824 824 825 826 827 827 827 829 829 829 829 830 832 831 832 832 833
748 749 752 754 757 756 743 737 735 733 746 753 749 751 751 749 747 742 739 745 755 763 767 769 771 773 776 781 786 790 794 797 799 802 803 805 805 805 806 808 812 814 813 814 814 814 815 815 816 816 816 816 816 816 816 816 816 817 818 819 819 818 818 819 820 821 821 821 820 819 819 819 819 819 820 820 819 819 820 821 822 822 823 824 825 826 827 828 829 828 828 829 830 830 831 831 831
746 747 751 751 752 751 738 733 734 731 744 751 746 750 752 748 747 742 741 750 759 763 767 770 771 773 777 782 787 790 794 797 800 803 804 803 804 806 808 811 814 814 814 815 815 815 816 816 817 817 816 817 817 817 817 817 817 817 818 818 818 819 818 819 819 819 820 819 819 818 818 818 818 818 818 818 818 818 818 819 819 820 821 822 823 824 825 826 827 827 827 827 828 829 829 830 830
748 747 751 753 747 743 736 731 730 730 741 749 746 751 752 747 745 743 743 752 759 760 762 767 769 774 780 785 789 791 795 799 801 803 804 803 804 806 810 812 814 815 814 815 816 816 817 817 817 818 817 818 818 818 817 817 817 817 818 818 818 818 818 818 818 818 818 818 817 817 817 817 817 817 817 817 817 817 817 817 817 818 819 819 820 822 822 823 824 824 825 826 826 827 827 828 829
749 748 753 755 745 741 742 736 732 730 735 741 743 749 751 748 746 746 750 756 761 763 765 768 770 775 782 786 790 792 795 800 802 803 804 804 805 808 811 813 814 815 815 816 816 817 817 818 818 818 818 819 818 818 818 818 817 817 818 818 817 817 817 817 817 817 817 817 817 816 816 816 815 815 815 815 815 815 815 815 816 816 817 818 818 819 820 820 821 822 823 824 824 825 825 826 827
748 745 749 751 742 736 735 733 732 732 733 733 741 757 760 753 752 754 757 762 767 770 772 777 780 781 784 787 791 794 795 799 802 803 805 805 806 810 812 814 815 815 816 816 816 817 817 818 819 819 819 819 819 818 818 817 817 817 817 816 817 816 816 817 817 817 817 817 816 815 815 814 814 814 814 814 813 813 813 813 814 814 815 815 816 816 817 817 818 819 820 821 822 822 823 823 825
749 741 738 739 737 732 729 729 733 745 750 737 740 771 779 759 754 759 762 769 774 776 778 784 788 787 788 791 794 796 797 799 802 804 806 807 808 811 814 815 816 816 816 816 816 817 817 818 818 819 819 819 819 818 817 817 816 816 816 816 816 817 817 817 816 816 816 816 815 814 814 813 813 813 813 813 812 812 812 812 812 812 813 813 813 814 814 815 815 816 817 818 819 820 821 822 822
751 736 727 730 731 731 732 731 738 753 756 737 734 767 786 770 760 760 763 773 780 780 783 788 791 793 793 795 797 798 800 802 803 806 807 808 810 813 815 816 817 817 817 817 817 818 818 819 819 819 820 819 819 818 817 817 816 817 817 817 818 818 818 817 817 816 816 815 814 813 813 812 811 812 812 812 811 811 811 810 810 811 811 811 811 811 811 812 813 814 815 816 817 818 818 818 819
744 726 721 728 728 729 732 732 739 744 741 738 736 751 778 781 767 759 761 775 786 787 790 792 793 797 797 798 800 800 803 804 805 807 809 810 812 814 816 817 816 817 817 817 818 819 819 820 820 820 820 820 819 819 818 817 818 818 817 818 818 818 818 817 816 816 815 814 814 813 812 812 811 811 811 811 811 811 810 810 809 809 809 809 809 809 809 810 811 812 813 814 814 815 815 815 816
730 718 718 723 722 724 727 729 735 733 736 756 753 747 776 787 767 757 760 775 792 794 795 797 796 799 800 801 803 803 805 805 806 808 809 811 813 815 816 817 817 818 818 818 819 819 820 820 820 820 820 821 820 820 819 819 818 818 817 817 817 817 817 817 816 815 815 814 813 813 812 812 811 811 810 810 810 809 809 808 807 807 807 808 808 808 808 808 809 810 810 811 812 812 813 813 813
719 715 716 717 717 719 723 728 732 733 743 765 760 749 774 789 771 763 766 775 791 796 797 799 798 800 802 803 805 806 806 807 808 808 810 813 815 816 817 817 817 818 818 819 820 820 821 821 821 821 821 822 821 821 820 820 819 818 818 817 817 817 816 815 815 814 814 814 813 813 812 811 811 810 809 809 808 808 808 807 806 806 806 807 807 806 806 806 807 807 808 809 809 810 810 810 810
714 716 719 720 717 716 722 726 728 742 755 758 752 745 762 784 777 765 764 771 783 792 797 800 800 801 803 804 805 806 807 809 810 810 812 814 815 816 817 818 818 819 819 820 820 821 821 821 822 822 822 822 821 821 821 820 819 818 818 817 817 817 816 815 815 814 814 814 813 813 812 811 810 810 809 808 808 807 806 806 805 805 806 806 806 806 806 806 805 806 806 807 807 807 807 807 807
713 718 724 730 728 724 733 734 734 755 763 748 740 738 749 775 778 762 760 768 775 783 791 797 800 802 803 803 805 806 807 809 810 811 813 814 815 816 817 818 818 819 820 820 821 822 822 822 823 822 822 822 822 821 821 821 820 819 818 817 817 817 816 816 815 815 815 814 814 813 812 811 810 809 809 808 807 806 805 805 805 805 805 805 806 806 807 807 806 805 804 805 806 806 806 806 805
715 719 728 742 746 745 752 754 751 759 754 736 732 738 750 772 779 767 764 770 773 776 783 791 798 801 803 804 805 806 807 808 809 811 812 813 814 816 817 818 819 820 821 821 822 823 823 823 823 823 823 822 822 822 821 821 820 820 819 818 817 817 816 816 816 815 816 815 814 813 812 811 809 808 808 807 807 806 805 804 804 804 804 804 805 805 806 805 804 803 802 803 803 804 805 805 804
716 719 730 746 753 759 766 763 760 759 750 733 725 736 759 777 782 776 771 772 774 776 783 791 796 800 803 805 806 808 809 809 810 811 812 813 814 816 818 819 820 821 822 823 823 823 824 824 823 823 823 822 822 822 822 821 821 820 819 818 817 817 816 816 816 815 815 815 814 813 812 811 809 808 806 806 806 805 804 803 803 803 803 802 802 802 802 802 802 801 800 800 800 800 801 802 802
712 709 719 737 740 749 761 759 759 763 754 738 732 749 775 787 787 781 776 776 778 781 786 792 797 800 803 806 808 810 811 811 812 812 813 815 816 817 819 820 822 823 823 824 824 824 823 823 823 822 823 822 822 822 822 821 821 820 819 818 817 816 816 816 815 815 815 815 814 812 811 810 809 807 806 805 804 803 802 802 802 802 801 800 798 798 799 799 799 799 798 798 797 797 798 798 799
711 702 714 730 725 727 740 742 745 750 751 753 762 778 789 790 789 784 781 784 785 786 790 794 799 803 805 809 811 812 813 813 813 814 815 817 818 819 821 822 824 824 824 825 824 824 823 822 822 822 822 822 821 821 821 821 821 820 820 819 818 817 816 815 815 815 815 814 813 812 811 810 808 807 805 804 803 802 802 801 800 800 799 798 796 796 796 796 796 795 795 794 793 793 793 794 795
709 709 718 717 708 714 731 740 741 741 755 776 787 793 793 791 794 791 787 791 793 793 795 797 801 804 806 810 812 814 815 815 815 816 817 819 820 821 823 824 825 825 825 825 824 823 822 822 822 822 821 821 820 820 820 820 820 820 819 818 818 817 816 816 816 815 815 814 813 812 811 809 808 806 805 804 803 802 800 799 798 798 797 796 795 795 794 794 793 792 791 791 790 789 789 790 791
706 715 712 704 706 712 721 741 750 747 765 790 791 792 794 792 796 796 792 795 797 798 799 800 804 806 808 812 814 815 815 816 817 818 819 821 821 823 824 824 825 825 824 824 824 823 822 822 821 821 820 820 820 820 820 820 819 819 819 818 818 817 817 816 816 816 815 814 813 812 811 809 808 806 805 803 802 800 799 798 797 796 795 794 793 793 793 792 791 790 789 788 787 787 787 787 789
695 701 697 704 723 729 723 736 750 754 774 795 793 793 793 787 789 793 791 793 797 799 801 804 807 808 810 813 814 815 816 817 818 819 821 821 822 823 824 824 824 824 824 824 823 823 822 822 821 820 820 819 819 820 819 820 820 819 819 818 818 817 816 816 816 816 815 814 814 812 810 809 807 806 804 803 801 800 798 796 795 795 794 793 792 791 790 789 787 786 786 786 785 785 784 785 786
689 692 693 701 716 723 723 726 734 746 770 789 795 797 791 782 783 786 786 788 792 797 802 804 807 808 809 812 815 816 817 818 819 821 821 821 822 823 823 824 824 823 823 823 822 822 822 821 821 820 820 819 819 820 820 820 820 819 819 818 818 817 816 816 815 815 815 814 814 812 810 809 807 805 803 802 800 799 797 796 794 793 792 791 790 789 788 786 784 783 783 784 783 782 783 783 783
698 702 705 706 707 710 716 719 719 729 756 781 794 798 790 778 776 779 783 787 789 794 800 803 806 808 810 812 815 816 818 819 820 820 821 821 821 822 823 823 823 822 822 822 822 822 822 821 821 820 820 820 819 820 821 821 820 820 819 818 818 817 817 816 816 815 815 814 813 812 811 809 807 805 803 801 800 798 797 795 793 792 790 789 788 787 786 785 783 782 782 783 783 782 782 782 782
699 704 705 707 708 712 725 733 722 716 735 763 780 788 788 781 774 776 782 787 789 793 798 803 807 809 811 813 814 817 818 819 820 819 820 821 821 822 823 823 822 822 822 822 822 822 822 822 822 821 821 820 821 821 821 821 821 820 820 819 819 818 817 817 816 816 815 815 814 812 811 810 808 806 803 801 800 798 796 794 792 790 788 787 786 785 785 783 782 781 780 780 781 781 781 781 781